Tracking 20232 objects as of 18-Jan-2020
HD Live streaming from Space Station
objects crossing your sky now

COSMOS 2251 DEB

Track COSMOS 2251 DEB now!
10-day predictions


NORAD ID: 38200
Int'l Code: 1993-036BSQ
Perigee: 510.6 km
Apogee: 628.1 km
Inclination: 74.1 °
Period: 95.9 minutes
Semi major axis: 6940 km
RCS: 0.003 m2 (small)
Launch date: June 16, 1993
Source: Commonwealth of Independent States (former USSR) (CIS)
Launch site: PLESETSK MISSILE AND SPACE COMPLEX (PKMTR)

Note: This is SATELLITE DEBRIS
aabbcc
Your satellite tracking list
Your tracking list is empty




NASA's NSSDC Master Catalog

Two Line Element Set (TLE):
1 38200U 93036BSQ 20014.73756636 +.00002895 +00000-0 +21032-3 0  9999
2 38200 074.0577 164.3070 0084678 005.7316 354.4819 15.01524850542388
Source of the keplerian elements: AFSPC